Gustavus, AK

2:06 PM AKDT on April 29, 2017 (GMT -0800)
Gustavus

Weather History for PAGS - January, 2015

Change the Weather History Date:

Tuesday, January 13, 2015

  Actual Average Record
Temperature  
Mean Temperature 40 °F -  
Max Temperature 44 °F 29 °F 49 °F (1986)
Min Temperature 35 °F 23 °F -14 °F (1950)
Degree Days  
Heating Degree Days 26    
Moisture  
Dew Point 37 °F    
Average Humidity 90    
Maximum Humidity 100    
Minimum Humidity 81    
Precipitation  
Precipitation 0.00 in - - ()
Sea Level Pressure  
Sea Level Pressure 29.95 in    
Wind  
Wind Speed 5 mph (ESE)    
Max Wind Speed 14 mph    
Max Gust Speed 20 mph    
Visibility 9 miles    
Events      
Averages and records for this station are not official NWS values.
T = Trace of Precipitation, MM = Missing Value Source: NWS Daily Summary

Daily Weather History Graph

Daily Weather History Graph

Search for Another Location

Airport or City:

Trip Planner

Search our weather history database for the weather conditions in past years. The results will help you decide how hot, cold, wet, or windy it might be!

Date:

Astronomy

Jan. 13, 2015 Rise Set
Actual Time 8:41 AM AKST 3:42 PM AKST
Civil Twilight 7:51 AM AKST 4:31 PM AKST
Nautical Twilight 7:00 AM AKST 5:23 PM AKST
Astronomical Twilight 6:12 AM AKST 6:10 PM AKST
Moon 12:53 AM AKST (1/13) 11:12 AM AKST (1/13)
Length of Visible Light 8h 39m
Length of Day
7h 00m
Last Quarter, 45% of the Moon is Illuminated
Jan 13
Last Quarter
Jan 20
New
Jan 26
First Quarter
Feb 3
Full
Feb 11
Last Quarter

Hourly Weather History & Observations

Time (AKST) Temp. Windchill Dew Point Humidity Pressure Visibility Wind Dir Wind Speed Gust Speed Precip Events Conditions
12:16 AM 35.6 °F 32.8 °F 33.8 °F 93% 29.85 in 10.0 mi NNE 3.5 mph - N/A   Overcast
12:36 AM 35.6 °F 28.0 °F 33.8 °F 93% 29.85 in 10.0 mi NNW 10.4 mph - N/A   Overcast
12:56 AM 35.6 °F 32.8 °F 33.8 °F 93% 29.84 in 10.0 mi North 3.5 mph - N/A   Mostly Cloudy
1:16 AM 35.6 °F 30.7 °F 33.8 °F 93% 29.84 in 10.0 mi NW 5.8 mph - N/A   Mostly Cloudy
1:36 AM 35.6 °F 29.9 °F 33.8 °F 93% 29.83 in 10.0 mi NNW 6.9 mph - N/A   Mostly Cloudy
1:56 AM 35.6 °F 28.6 °F 33.8 °F 93% 29.83 in 10.0 mi NNW 9.2 mph - N/A   Mostly Cloudy
2:16 AM 35.6 °F 30.7 °F 33.8 °F 93% 29.84 in 10.0 mi NNW 5.8 mph - N/A   Overcast
2:36 AM 35.6 °F 29.2 °F 33.8 °F 93% 29.83 in 10.0 mi NNW 8.1 mph - N/A   Overcast
2:56 AM 35.6 °F 29.9 °F 33.8 °F 93% 29.83 in 10.0 mi NNW 6.9 mph - N/A   Overcast
3:16 AM 35.6 °F 29.9 °F 33.8 °F 93% 29.83 in 10.0 mi NNW 6.9 mph - N/A   Overcast
3:36 AM 35.6 °F 32.8 °F 33.8 °F 93% 29.82 in 10.0 mi NW 3.5 mph - N/A   Overcast
3:56 AM 35.6 °F 29.9 °F 33.8 °F 93% 29.81 in 10.0 mi NNW 6.9 mph - N/A   Overcast
4:16 AM 37.4 °F - 35.6 °F 93% 29.81 in 10.0 mi Calm Calm - N/A   Overcast
4:36 AM 37.4 °F - 35.6 °F 93% 29.82 in 10.0 mi Calm Calm - N/A   Overcast
4:56 AM 35.6 °F 32.8 °F 33.8 °F 93% 29.82 in 9.0 mi North 3.5 mph - N/A   Overcast
5:16 AM 35.6 °F - 33.8 °F 93% 29.81 in 9.0 mi Calm Calm - N/A   Overcast
5:36 AM 35.6 °F 32.8 °F 33.8 °F 93% 29.81 in 10.0 mi NNW 3.5 mph - N/A   Overcast
5:56 AM 35.6 °F - 33.8 °F 93% 29.81 in 10.0 mi Calm Calm - N/A   Overcast
6:16 AM 35.6 °F 29.9 °F 33.8 °F 93% 29.82 in 10.0 mi NNW 6.9 mph - N/A   Overcast
6:36 AM 37.4 °F 33.8 °F 35.6 °F 93% 29.82 in 10.0 mi ENE 4.6 mph - N/A   Overcast
6:56 AM 41.0 °F 35.8 °F 37.4 °F 87% 29.83 in 10.0 mi SE 8.1 mph - N/A   Overcast
7:16 AM 42.8 °F 37.5 °F 41.0 °F 93% 29.83 in 10.0 mi ESE 9.2 mph - N/A   Overcast
7:36 AM 42.8 °F 36.6 °F 41.0 °F 93% 29.84 in 10.0 mi SE 11.5 mph - N/A   Overcast
7:56 AM 44.6 °F 39.2 °F 41.0 °F 87% 29.84 in 10.0 mi SE 10.4 mph - N/A   Overcast
8:16 AM 44.6 °F 39.2 °F 41.0 °F 87% 29.85 in 10.0 mi SE 10.4 mph - N/A   Overcast
8:36 AM 44.6 °F 38.4 °F 42.8 °F 93% 29.86 in 10.0 mi SSE 12.7 mph - N/A   Overcast
8:56 AM 44.6 °F 38.1 °F 41.0 °F 87% 29.88 in 10.0 mi SE 13.8 mph 18.4 mph N/A   Overcast
9:16 AM 44.6 °F 39.2 °F 41.0 °F 87% 29.89 in 10.0 mi SSE 10.4 mph 19.6 mph N/A   Overcast
9:36 AM 44.6 °F 40.7 °F 42.8 °F 93% 29.91 in 10.0 mi SSE 6.9 mph - N/A   Overcast
9:56 AM 44.6 °F 40.7 °F 41.0 °F 87% 29.92 in 10.0 mi West 6.9 mph - N/A   Overcast
10:16 AM 42.8 °F 38.0 °F 39.2 °F 87% 29.94 in 10.0 mi WSW 8.1 mph - N/A   Overcast
10:36 AM 42.8 °F 40.1 °F 39.2 °F 87% 29.96 in 10.0 mi WSW 4.6 mph - N/A   Overcast
10:56 AM 42.8 °F 38.6 °F 39.2 °F 87% 29.97 in 10.0 mi WSW 6.9 mph - N/A   Overcast
11:16 AM 42.8 °F 38.6 °F 41.0 °F 93% 29.99 in 10.0 mi South 6.9 mph - N/A   Overcast
11:36 AM 42.8 °F 40.1 °F 41.0 °F 93% 30.00 in 10.0 mi South 4.6 mph - N/A   Overcast
11:56 AM 42.8 °F - 41.0 °F 93% 30.00 in 10.0 mi Calm Calm - N/A   Overcast
12:16 PM 42.8 °F - 39.2 °F 87% 30.01 in 10.0 mi Calm Calm - N/A   Overcast
12:36 PM 42.8 °F - 41.0 °F 93% 30.01 in 2.0 mi Calm Calm - N/A   Overcast
12:56 PM 42.8 °F 39.3 °F 39.2 °F 87% 30.02 in 7.0 mi East 5.8 mph - N/A   Overcast
1:16 PM 42.8 °F 39.3 °F 39.2 °F 87% 30.02 in 10.0 mi ESE 5.8 mph - N/A   Overcast
1:36 PM 42.8 °F 41.1 °F 39.2 °F 87% 30.03 in 10.0 mi SSE 3.5 mph - N/A   Overcast
1:56 PM 42.8 °F 40.1 °F 37.4 °F 81% 30.04 in 10.0 mi SE 4.6 mph - N/A   Overcast
2:16 PM 42.8 °F 41.1 °F 37.4 °F 81% 30.05 in 10.0 mi ESE 3.5 mph - N/A   Overcast
2:36 PM 42.8 °F - 39.2 °F 87% 30.05 in 10.0 mi Calm Calm - N/A   Overcast
2:56 PM 42.8 °F 39.3 °F 41.0 °F 93% 30.04 in 10.0 mi SE 5.8 mph - N/A   Overcast
3:16 PM 42.8 °F 39.3 °F 39.2 °F 87% 30.05 in 10.0 mi SSE 5.8 mph - N/A   Overcast
3:36 PM 42.8 °F 39.3 °F 39.2 °F 87% 30.05 in 10.0 mi SSE 5.8 mph - N/A   Overcast
3:56 PM 42.8 °F 39.3 °F 39.2 °F 87% 30.05 in 10.0 mi SE 5.8 mph - N/A   Overcast
4:16 PM 42.8 °F 39.3 °F 39.2 °F 87% 30.05 in 10.0 mi SE 5.8 mph - N/A   Overcast
4:36 PM 42.8 °F 38.6 °F 39.2 °F 87% 30.05 in 10.0 mi ESE 6.9 mph - N/A   Overcast
4:56 PM 42.8 °F 39.3 °F 37.4 °F 81% 30.05 in 10.0 mi SE 5.8 mph - N/A   Overcast
5:16 PM 42.8 °F 39.3 °F 39.2 °F 87% 30.05 in 10.0 mi SE 5.8 mph - N/A   Overcast
5:36 PM 41.0 °F 38.0 °F 37.4 °F 87% 30.05 in 10.0 mi SE 4.6 mph - N/A   Overcast
5:56 PM 42.8 °F 39.3 °F 39.2 °F 87% 30.06 in 10.0 mi East 5.8 mph - N/A   Overcast
6:16 PM 42.8 °F 38.6 °F 37.4 °F 81% 30.06 in 10.0 mi ESE 6.9 mph - N/A   Overcast
6:36 PM 42.8 °F - 39.2 °F 87% 30.06 in 10.0 mi Calm Calm - N/A   Overcast
6:56 PM 42.8 °F - 39.2 °F 87% 30.07 in 10.0 mi Calm Calm - N/A   Overcast
7:16 PM 39.2 °F - 35.6 °F 87% 30.06 in 10.0 mi Calm Calm - N/A   Overcast
7:36 PM 41.0 °F 39.0 °F 37.4 °F 87% 30.06 in 10.0 mi SE 3.5 mph - N/A   Overcast
7:56 PM 39.2 °F - 35.6 °F 87% 30.06 in 10.0 mi Calm Calm - N/A   Overcast
8:16 PM 39.2 °F 37.0 °F 39.2 °F 100% 30.06 in 10.0 mi SE 3.5 mph - N/A   Overcast
8:36 PM 41.0 °F 38.0 °F 37.4 °F 87% 30.06 in 10.0 mi ESE 4.6 mph - N/A   Overcast
8:56 PM 42.8 °F 38.6 °F 39.2 °F 87% 30.05 in 4.0 mi ESE 6.9 mph - N/A   Overcast
9:16 PM 42.8 °F - 39.2 °F 87% 30.04 in 10.0 mi Calm Calm - N/A   Overcast
9:36 PM 39.2 °F - 37.4 °F 93% 30.04 in 1.2 mi Calm Calm - N/A   Overcast
9:56 PM 37.4 °F - 35.6 °F 93% 30.03 in 0.8 mi Calm Calm - N/A   Overcast
10:16 PM 35.6 °F - 33.8 °F 93% 30.03 in 0.8 mi Calm Calm - N/A   Mostly Cloudy
10:36 PM 35.6 °F - 33.8 °F 93% 30.03 in 1.0 mi Calm Calm - N/A   Mostly Cloudy
10:56 PM 35.6 °F - 33.8 °F 93% 30.03 in 0.8 mi Calm Calm - N/A   Overcast
11:16 PM 35.6 °F - 32.0 °F 87% 30.03 in 1.2 mi Calm Calm - N/A   Overcast
11:36 PM 35.6 °F 32.8 °F 33.8 °F 93% 30.04 in 1.5 mi North 3.5 mph - N/A   Overcast
11:56 PM 37.4 °F - 35.6 °F 93% 30.03 in 4.0 mi Calm Calm - N/A   Overcast